Location: Misciano
(43.5000°N, 11.9500°E)
Time: 06:27:44
(UTC+00:00)

IRIDIUM 106 - Pass Details

Date: 13 August 2020
Orbit: 776 x 779 km, 86.4° (Epoch: 23 September)

Event Time Altitude Azimuth Distance (km) Brightness Sun altitude
Rises 18:52:45 0° 173° (S) 3,247 7.2 -6.6°
Reaches altitude 10° 18:55:06 10° 171° (S) 2,324 6.5 -7.0°
Maximum altitude 19:00:16 67° 89° (E) 847 4.3 -7.8°
Drops below altitude 10° 19:05:27 10° 8° (N) 2,341 7.1 -8.6°
Sets 19:07:49 0° 6° (N) 3,273 7.9 -9.0°
